Time,TemperatureF,DewpointF,PressureIn,WindDirection,WindDirectionDegrees,WindSpeedMPH,WindSpeedGustMPH,Humidity,HourlyPrecipIn,Conditions,Clouds,dailyrainin,SoftwareType,DateUTC
2013-07-19 00:00:00,75.0,69.2,30.11,SSE,154,0.0,0.0,82,0.00,,---,0.00,VWS V14.01,2013-07-19 04:00:00,
2013-07-19 00:01:00,75.0,69.2,30.11,SSE,154,3.9,3.9,82,0.00,,---,0.00,VWS V14.01,2013-07-19 04:01:00,
2013-07-19 00:02:00,75.0,69.7,30.11,SSE,154,0.0,0.0,83,0.00,,---,0.00,VWS V14.01,2013-07-19 04:02:00,
2013-07-19 00:03:00,75.0,69.7,30.11,SSE,154,0.0,0.0,83,0.00,,---,0.00,VWS V14.01,2013-07-19 04:03:00,
2013-07-19 00:08:00,74.8,69.5,30.11,SSE,155,0.0,0.0,83,0.00,,---,0.00,VWS V14.01,2013-07-19 04:08:00,
2013-07-19 00:13:00,74.7,69.3,30.11,SSE,155,0.0,0.0,83,0.00,,---,0.00,VWS V14.01,2013-07-19 04:13:00,
2013-07-19 00:18:00,74.7,69.3,30.11,SSE,155,0.0,0.0,83,0.00,,---,0.00,VWS V14.01,2013-07-19 04:18:00,
2013-07-19 00:23:00,74.5,69.1,30.11,ESE,110,5.8,5.8,83,0.00,,---,0.00,VWS V14.01,2013-07-19 04:23:00,
2013-07-19 00:28:00,74.5,69.6,30.11,SW,236,0.0,0.0,85,0.00,,---,0.00,VWS V14.01,2013-07-19 04:28:00,
2013-07-19 00:33:00,74.3,69.4,30.11,SW,233,0.0,0.0,85,0.00,,---,0.00,VWS V14.01,2013-07-19 04:33:00,
2013-07-19 00:39:00,74.3,69.4,30.11,SW,229,0.0,0.0,85,0.00,,---,0.00,VWS V14.01,2013-07-19 04:39:00,
2013-07-19 00:44:00,74.1,69.2,30.11,SW,228,0.0,0.0,85,0.00,,---,0.00,VWS V14.01,2013-07-19 04:44:00,
2013-07-19 00:49:00,74.1,69.2,30.11,SW,217,0.0,0.0,85,0.00,,---,0.00,VWS V14.01,2013-07-19 04:49:00,
2013-07-19 00:54:00,74.1,69.7,30.11,SW,217,0.0,0.0,86,0.00,,---,0.00,VWS V14.01,2013-07-19 04:54:00,
2013-07-19 00:59:00,73.9,69.6,30.11,SSE,166,3.9,4.5,86,0.00,,---,0.00,VWS V14.01,2013-07-19 04:59:00,
2013-07-19 01:04:00,73.9,69.6,30.11,SSE,154,0.0,0.0,86,0.00,,---,0.00,VWS V14.01,2013-07-19 05:04:00,
2013-07-19 01:09:00,73.8,69.4,30.11,SSE,154,0.0,0.0,86,0.00,,---,0.00,VWS V14.01,2013-07-19 05:09:00,
2013-07-19 01:14:00,73.8,69.4,30.11,SSE,154,0.0,0.0,86,0.00,,---,0.00,VWS V14.01,2013-07-19 05:14:00,
2013-07-19 01:20:00,73.6,69.2,30.11,SSE,154,0.0,0.0,86,0.00,,---,0.00,VWS V14.01,2013-07-19 05:20:00,
2013-07-19 01:25:00,73.6,69.7,30.11,SSE,154,0.0,0.0,88,0.00,,---,0.00,VWS V14.01,2013-07-19 05:25:00,
2013-07-19 01:30:00,73.4,69.5,30.11,SSE,154,0.0,0.0,88,0.00,,---,0.00,VWS V14.01,2013-07-19 05:30:00,
2013-07-19 01:35:00,73.4,69.5,30.11,SSE,154,0.0,0.0,88,0.00,,---,0.00,VWS V14.01,2013-07-19 05:35:00,
2013-07-19 01:40:00,73.4,69.5,30.11,SSE,154,0.0,0.0,88,0.00,,---,0.00,VWS V14.01,2013-07-19 05:40:00,
2013-07-19 01:45:00,73.2,69.8,30.11,SSE,154,0.0,0.0,89,0.00,,---,0.00,VWS V14.01,2013-07-19 05:45:00,
2013-07-19 01:50:00,73.2,69.8,30.11,SSE,154,0.0,0.0,89,0.00,,---,0.00,VWS V14.01,2013-07-19 05:50:00,
2013-07-19 01:55:00,73.0,69.6,30.11,SE,144,5.2,5.2,89,0.00,,---,0.00,VWS V14.01,2013-07-19 05:55:00,
2013-07-19 02:00:00,73.0,69.6,30.11,SSE,156,5.8,5.8,89,0.00,,---,0.00,VWS V14.01,2013-07-19 06:00:00,
2013-07-19 02:05:00,72.9,69.4,30.11,SE,145,5.8,5.8,89,0.00,,---,0.00,VWS V14.01,2013-07-19 06:05:00,
2013-07-19 02:10:00,72.9,69.4,30.11,SE,146,5.2,5.8,89,0.00,,---,0.00,VWS V14.01,2013-07-19 06:10:00,
2013-07-19 02:15:00,72.7,69.2,30.11,SSE,149,0.0,0.0,89,0.00,,---,0.00,VWS V14.01,2013-07-19 06:15:00,
2013-07-19 02:20:00,72.7,69.7,30.11,SSE,149,0.0,0.0,90,0.00,,---,0.00,VWS V14.01,2013-07-19 06:20:00,
2013-07-19 02:26:00,72.7,69.7,30.11,SSE,149,0.0,0.0,90,0.00,,---,0.00,VWS V14.01,2013-07-19 06:26:00,
2013-07-19 02:31:00,72.5,69.5,30.11,SSE,149,0.0,0.0,90,0.00,,---,0.00,VWS V14.01,2013-07-19 06:31:00,
2013-07-19 02:36:00,72.5,69.5,30.11,SE,135,4.5,4.5,90,0.00,,---,0.00,VWS V14.01,2013-07-19 06:36:00,
2013-07-19 02:41:00,72.5,69.5,30.11,SE,133,3.9,3.9,90,0.00,,---,0.00,VWS V14.01,2013-07-19 06:41:00,
2013-07-19 02:46:00,72.3,69.3,30.08,SE,129,0.0,0.0,90,0.00,,---,0.00,VWS V14.01,2013-07-19 06:46:00,
2013-07-19 02:51:00,72.3,69.3,30.08,SE,130,3.9,3.9,90,0.00,,---,0.00,VWS V14.01,2013-07-19 06:51:00,
2013-07-19 02:56:00,72.1,69.2,30.08,SE,132,0.0,0.0,90,0.00,,---,0.00,VWS V14.01,2013-07-19 06:56:00,
2013-07-19 03:02:00,72.1,69.2,30.11,SSE,147,4.5,4.5,90,0.00,,---,0.00,VWS V14.01,2013-07-19 07:02:00,
2013-07-19 03:07:00,72.1,69.6,30.11,SSE,149,3.2,3.9,92,0.00,,---,0.00,VWS V14.01,2013-07-19 07:07:00,
2013-07-19 03:12:00,72.0,69.4,30.08,SSE,149,0.0,0.0,92,0.00,,---,0.00,VWS V14.01,2013-07-19 07:12:00,
2013-07-19 03:17:00,72.0,69.4,30.08,SSE,149,0.0,0.0,92,0.00,,---,0.00,VWS V14.01,2013-07-19 07:17:00,
2013-07-19 03:22:00,72.0,69.4,30.08,SSE,149,0.0,0.0,92,0.00,,---,0.00,VWS V14.01,2013-07-19 07:22:00,
2013-07-19 03:27:00,71.8,69.2,30.08,SSE,149,0.0,0.0,92,0.00,,---,0.00,VWS V14.01,2013-07-19 07:27:00,
2013-07-19 03:32:00,71.8,69.2,30.08,SSE,149,0.0,0.0,92,0.00,,---,0.00,VWS V14.01,2013-07-19 07:32:00,
2013-07-19 03:37:00,71.6,69.1,30.08,SSE,149,0.0,0.0,92,0.00,,---,0.00,VWS V14.01,2013-07-19 07:37:00,
2013-07-19 03:42:00,71.6,69.1,30.08,SSE,149,0.0,0.0,92,0.00,,---,0.00,VWS V14.01,2013-07-19 07:42:00,
2013-07-19 03:48:00,71.6,69.1,30.08,SSE,149,3.2,3.9,92,0.00,,---,0.00,VWS V14.01,2013-07-19 07:48:00,
2013-07-19 03:53:00,71.4,69.3,30.08,SE,145,5.2,5.8,93,0.00,,---,0.00,VWS V14.01,2013-07-19 07:53:00,
2013-07-19 03:58:00,71.4,69.3,30.08,SE,144,4.5,4.5,93,0.00,,---,0.00,VWS V14.01,2013-07-19 07:58:00,
2013-07-19 04:03:00,71.4,69.3,30.08,SSE,159,0.0,0.0,93,0.00,,---,0.00,VWS V14.01,2013-07-19 08:03:00,
2013-07-19 04:08:00,71.2,69.2,30.08,SSE,159,0.0,0.0,93,0.00,,---,0.00,VWS V14.01,2013-07-19 08:08:00,
2013-07-19 04:13:00,71.2,69.2,30.11,SSE,159,0.0,0.0,93,0.00,,---,0.00,VWS V14.01,2013-07-19 08:13:00,
2013-07-19 04:19:00,71.2,69.2,30.11,SSE,159,0.0,0.0,93,0.00,,---,0.00,VWS V14.01,2013-07-19 08:19:00,
2013-07-19 04:24:00,71.1,69.0,30.11,SSE,159,0.0,0.0,93,0.00,,---,0.00,VWS V14.01,2013-07-19 08:24:00,
2013-07-19 04:29:00,71.1,69.0,30.08,SSE,159,0.0,0.0,93,0.00,,---,0.00,VWS V14.01,2013-07-19 08:29:00,
2013-07-19 04:34:00,71.1,69.4,30.08,SSE,159,0.0,0.0,95,0.00,,---,0.00,VWS V14.01,2013-07-19 08:34:00,
2013-07-19 04:39:00,70.9,69.2,30.08,SSE,159,0.0,0.0,95,0.00,,---,0.00,VWS V14.01,2013-07-19 08:39:00,
2013-07-19 04:44:00,70.9,69.2,30.08,SSE,159,0.0,0.0,95,0.00,,---,0.00,VWS V14.01,2013-07-19 08:44:00,
2013-07-19 04:50:00,70.7,69.1,30.08,SSE,159,0.0,0.0,95,0.00,,---,0.00,VWS V14.01,2013-07-19 08:50:00,
2013-07-19 04:55:00,70.7,69.1,30.08,SSE,159,0.0,0.0,95,0.00,,---,0.00,VWS V14.01,2013-07-19 08:55:00,
2013-07-19 05:00:00,70.7,69.1,30.11,SSE,159,0.0,0.0,95,0.00,,---,0.00,VWS V14.01,2013-07-19 09:00:00,
2013-07-19 05:05:00,70.5,68.9,30.11,SSE,159,0.0,0.0,95,0.00,,---,0.00,VWS V14.01,2013-07-19 09:05:00,
2013-07-19 05:10:00,70.5,68.9,30.11,SSE,159,0.0,0.0,95,0.00,,---,0.00,VWS V14.01,2013-07-19 09:10:00,
2013-07-19 05:15:00,70.5,68.9,30.08,SSE,159,0.0,0.0,95,0.00,,---,0.00,VWS V14.01,2013-07-19 09:15:00,
2013-07-19 05:20:00,70.3,68.7,30.08,SSE,159,0.0,0.0,95,0.00,,---,0.00,VWS V14.01,2013-07-19 09:20:00,
2013-07-19 05:25:00,70.3,68.7,30.08,SSE,158,3.2,3.9,95,0.00,,---,0.00,VWS V14.01,2013-07-19 09:25:00,
2013-07-19 05:31:00,70.3,69.1,30.08,SSE,158,0.0,0.0,96,0.00,,---,0.00,VWS V14.01,2013-07-19 09:31:00,
2013-07-19 05:36:00,70.3,69.1,30.08,South,177,0.0,0.0,96,0.00,,---,0.00,VWS V14.01,2013-07-19 09:36:00,
2013-07-19 05:41:00,70.3,69.1,30.08,South,173,3.9,3.9,96,0.00,,---,0.00,VWS V14.01,2013-07-19 09:41:00,
2013-07-19 05:46:00,70.3,69.1,30.08,SE,145,3.9,5.2,96,0.00,,---,0.00,VWS V14.01,2013-07-19 09:46:00,
2013-07-19 05:51:00,70.3,69.1,30.08,SE,145,0.0,3.2,96,0.00,,---,0.00,VWS V14.01,2013-07-19 09:51:00,
2013-07-19 05:56:00,70.3,69.1,30.08,SSE,163,0.0,0.0,96,0.00,,---,0.00,VWS V14.01,2013-07-19 09:56:00,
2013-07-19 06:01:00,70.3,69.1,30.08,South,182,0.0,0.0,96,0.00,,---,0.00,VWS V14.01,2013-07-19 10:01:00,
2013-07-19 06:07:00,70.3,69.1,30.08,South,182,0.0,0.0,96,0.00,,---,0.00,VWS V14.01,2013-07-19 10:07:00,
2013-07-19 06:12:00,70.2,68.9,30.11,South,182,0.0,0.0,96,0.00,,---,0.00,VWS V14.01,2013-07-19 10:12:00,
2013-07-19 06:17:00,70.2,68.9,30.11,South,182,0.0,0.0,96,0.00,,---,0.00,VWS V14.01,2013-07-19 10:17:00,
2013-07-19 06:22:00,70.2,68.9,30.11,South,182,0.0,0.0,96,0.00,,---,0.00,VWS V14.01,2013-07-19 10:22:00,
2013-07-19 06:27:00,70.2,68.9,30.08,South,182,0.0,0.0,96,0.00,,---,0.00,VWS V14.01,2013-07-19 10:27:00,
2013-07-19 06:32:00,70.2,68.9,30.08,South,182,0.0,0.0,96,0.00,,---,0.00,VWS V14.01,2013-07-19 10:32:00,
2013-07-19 06:38:00,70.2,69.4,30.08,South,182,0.0,0.0,97,0.00,,---,0.00,VWS V14.01,2013-07-19 10:38:00,
2013-07-19 06:43:00,70.2,69.4,30.08,South,182,0.0,0.0,97,0.00,,---,0.00,VWS V14.01,2013-07-19 10:43:00,
2013-07-19 06:48:00,70.2,69.4,30.08,South,182,0.0,0.0,97,0.00,,---,0.00,VWS V14.01,2013-07-19 10:48:00,
2013-07-19 06:53:00,70.2,69.4,30.08,South,182,0.0,0.0,97,0.00,,---,0.00,VWS V14.01,2013-07-19 10:53:00,
2013-07-19 06:58:00,70.3,69.5,30.08,South,182,0.0,0.0,97,0.00,,---,0.00,VWS V14.01,2013-07-19 10:58:00,
2013-07-19 07:03:00,70.3,69.5,30.08,South,182,0.0,0.0,97,0.00,,---,0.00,VWS V14.01,2013-07-19 11:03:00,
2013-07-19 07:08:00,70.5,69.7,30.08,South,182,0.0,3.2,97,0.00,,---,0.00,VWS V14.01,2013-07-19 11:08:00,
2013-07-19 07:13:00,70.5,69.7,30.11,South,182,0.0,0.0,97,0.00,,---,0.00,VWS V14.01,2013-07-19 11:13:00,
2013-07-19 07:19:00,70.7,69.9,30.11,South,182,0.0,0.0,97,0.00,,---,0.00,VWS V14.01,2013-07-19 11:19:00,
2013-07-19 07:24:00,70.9,70.1,30.11,South,182,0.0,0.0,97,0.00,,---,0.00,VWS V14.01,2013-07-19 11:24:00,
2013-07-19 07:29:00,70.9,70.1,30.08,South,181,3.2,3.9,97,0.00,,---,0.00,VWS V14.01,2013-07-19 11:29:00,
2013-07-19 07:34:00,71.1,70.7,30.08,South,181,0.0,0.0,99,0.00,,---,0.00,VWS V14.01,2013-07-19 11:34:00,
2013-07-19 07:39:00,71.4,71.0,30.08,South,181,0.0,0.0,99,0.00,,---,0.00,VWS V14.01,2013-07-19 11:39:00,
2013-07-19 07:45:00,71.6,71.2,30.08,South,181,0.0,0.0,99,0.00,,---,0.00,VWS V14.01,2013-07-19 11:45:00,
2013-07-19 07:49:00,71.8,71.4,30.08,South,181,0.0,0.0,99,0.00,,---,0.00,VWS V14.01,2013-07-19 11:49:00,
2013-07-19 07:55:00,72.1,71.8,30.08,South,180,0.0,0.0,99,0.00,,---,0.00,VWS V14.01,2013-07-19 11:55:00,
2013-07-19 08:00:00,72.5,72.1,30.11,South,180,0.0,0.0,99,0.00,,---,0.00,VWS V14.01,2013-07-19 12:00:00,
2013-07-19 08:05:00,72.9,72.5,30.11,South,180,0.0,0.0,99,0.00,,---,0.00,VWS V14.01,2013-07-19 12:05:00,
2013-07-19 08:10:00,73.0,72.7,30.11,South,180,0.0,0.0,99,0.00,,---,0.00,VWS V14.01,2013-07-19 12:10:00,
2013-07-19 08:15:00,73.2,72.8,30.11,South,180,0.0,0.0,99,0.00,,---,0.00,VWS V14.01,2013-07-19 12:15:00,
2013-07-19 08:20:00,73.6,73.2,30.11,South,180,0.0,0.0,99,0.00,,---,0.00,VWS V14.01,2013-07-19 12:20:00,
2013-07-19 08:25:00,73.9,73.6,30.11,South,180,0.0,0.0,99,0.00,,---,0.00,VWS V14.01,2013-07-19 12:25:00,
2013-07-19 08:30:00,74.3,73.9,30.11,South,180,0.0,0.0,99,0.00,,---,0.00,VWS V14.01,2013-07-19 12:30:00,
2013-07-19 08:35:00,74.8,74.8,30.11,South,180,0.0,0.0,100,0.00,,---,0.00,VWS V14.01,2013-07-19 12:35:00,
2013-07-19 08:41:00,74.8,74.4,30.11,South,180,0.0,0.0,99,0.00,,---,0.00,VWS V14.01,2013-07-19 12:41:00,
2013-07-19 08:45:00,75.0,74.6,30.11,South,180,0.0,0.0,99,0.00,,---,0.00,VWS V14.01,2013-07-19 12:45:00,
2013-07-19 08:51:00,75.6,75.6,30.11,South,180,0.0,0.0,100,0.00,,---,0.00,VWS V14.01,2013-07-19 12:51:00,
2013-07-19 08:56:00,75.9,75.9,30.11,South,180,0.0,0.0,100,0.00,,---,0.00,VWS V14.01,2013-07-19 12:56:00,
2013-07-19 09:01:00,75.9,75.5,30.11,South,181,0.0,0.0,99,0.00,,---,0.00,VWS V14.01,2013-07-19 13:01:00,
2013-07-19 09:06:00,76.3,76.3,30.11,South,181,0.0,0.0,100,0.00,,---,0.00,VWS V14.01,2013-07-19 13:06:00,
2013-07-19 09:11:00,76.6,76.7,30.11,South,181,0.0,0.0,100,0.00,,---,0.00,VWS V14.01,2013-07-19 13:11:00,
2013-07-19 09:16:00,77.0,76.6,30.11,South,182,0.0,0.0,99,0.00,,---,0.00,VWS V14.01,2013-07-19 13:16:00,
2013-07-19 09:21:00,77.7,77.7,30.11,NW,306,0.0,3.9,100,0.00,,---,0.00,VWS V14.01,2013-07-19 13:21:00,
2013-07-19 09:26:00,78.3,78.3,30.11,NNW,338,0.0,0.0,100,0.00,,---,0.00,VWS V14.01,2013-07-19 13:26:00,
2013-07-19 09:31:00,79.7,79.7,30.11,NW,315,0.0,0.0,100,0.00,,---,0.00,VWS V14.01,2013-07-19 13:31:00,
2013-07-19 09:36:00,81.0,80.6,30.11,WSW,258,0.0,0.0,99,0.00,,---,0.00,VWS V14.01,2013-07-19 13:36:00,
2013-07-19 09:41:00,82.8,81.9,30.11,South,187,4.5,4.5,97,0.00,,---,0.00,VWS V14.01,2013-07-19 13:41:00,
2013-07-19 09:46:00,84.0,82.3,30.11,North,353,0.0,3.9,95,0.00,,---,0.00,VWS V14.01,2013-07-19 13:46:00,
2013-07-19 09:51:00,84.9,81.8,30.11,WNW,288,0.0,0.0,90,0.00,,---,0.00,VWS V14.01,2013-07-19 13:51:00,
2013-07-19 09:56:00,85.5,80.9,30.11,WNW,296,0.0,0.0,86,0.00,,---,0.00,VWS V14.01,2013-07-19 13:56:00,
2013-07-19 10:01:00,85.5,78.8,30.11,SSW,209,0.0,0.0,81,0.00,,---,0.00,VWS V14.01,2013-07-19 14:01:00,
2013-07-19 10:06:00,86.2,79.5,30.11,NNW,330,0.0,0.0,81,0.00,,---,0.00,VWS V14.01,2013-07-19 14:06:00,
2013-07-19 10:11:00,87.6,80.4,30.11,NNE,17,3.9,3.9,79,0.00,,---,0.00,VWS V14.01,2013-07-19 14:11:00,
2013-07-19 10:16:00,88.3,74.6,30.08,NNW,336,0.0,0.0,64,0.00,,---,0.00,VWS V14.01,2013-07-19 14:16:00,
2013-07-19 10:22:00,88.0,74.9,30.08,NNE,27,0.0,0.0,65,0.00,,---,0.00,VWS V14.01,2013-07-19 14:22:00,
2013-07-19 10:27:00,88.3,75.9,30.08,South,172,3.2,3.2,67,0.00,,---,0.00,VWS V14.01,2013-07-19 14:27:00,
2013-07-19 10:32:00,88.9,75.8,30.08,NNW,348,4.5,4.5,65,0.00,,---,0.00,VWS V14.01,2013-07-19 14:32:00,
2013-07-19 10:37:00,88.9,73.1,30.08,North,353,0.0,0.0,60,0.00,,---,0.00,VWS V14.01,2013-07-19 14:37:00,
2013-07-19 10:42:00,89.2,74.1,30.08,North,0,3.9,3.9,61,0.00,,---,0.00,VWS V14.01,2013-07-19 14:42:00,
2013-07-19 10:47:00,89.6,70.9,30.08,North,353,0.0,0.0,54,0.00,,---,0.00,VWS V14.01,2013-07-19 14:47:00,
2013-07-19 10:52:00,89.4,70.7,30.08,North,353,0.0,0.0,54,0.00,,---,0.00,VWS V14.01,2013-07-19 14:52:00,
2013-07-19 10:57:00,89.4,71.5,30.08,NE,44,0.0,4.5,56,0.00,,---,0.00,VWS V14.01,2013-07-19 14:57:00,
2013-07-19 11:03:00,89.6,70.9,30.08,NW,322,5.2,5.2,54,0.00,,---,0.00,VWS V14.01,2013-07-19 15:03:00,
2013-07-19 11:08:00,89.8,68.7,30.08,SW,217,0.0,0.0,50,0.00,,---,0.00,VWS V14.01,2013-07-19 15:08:00,
2013-07-19 11:13:00,89.8,70.3,30.08,NNW,343,3.9,3.9,53,0.00,,---,0.00,VWS V14.01,2013-07-19 15:13:00,
2013-07-19 11:18:00,90.5,70.9,30.08,North,350,0.0,3.9,53,0.00,,---,0.00,VWS V14.01,2013-07-19 15:18:00,
2013-07-19 11:23:00,90.7,67.9,30.08,North,353,5.8,5.8,47,0.00,,---,0.00,VWS V14.01,2013-07-19 15:23:00,
2013-07-19 11:29:00,90.5,70.2,30.08,NW,325,3.2,3.9,51,0.00,,---,0.00,VWS V14.01,2013-07-19 15:29:00,
2013-07-19 11:34:00,90.0,68.1,30.08,NNW,339,3.2,4.5,49,0.00,,---,0.00,VWS V14.01,2013-07-19 15:34:00,
2013-07-19 11:39:00,90.1,68.2,30.08,NNE,32,4.5,5.8,49,0.00,,---,0.00,VWS V14.01,2013-07-19 15:39:00,
2013-07-19 11:44:00,90.7,69.5,30.08,NNE,18,4.5,4.5,50,0.00,,---,0.00,VWS V14.01,2013-07-19 15:44:00,
2013-07-19 11:49:00,90.7,69.5,30.08,NNW,343,3.2,5.2,50,0.00,,---,0.00,VWS V14.01,2013-07-19 15:49:00,
2013-07-19 11:54:00,90.5,68.5,30.08,NNW,333,5.2,7.1,49,0.00,,---,0.00,VWS V14.01,2013-07-19 15:54:00,
2013-07-19 11:59:00,90.1,69.0,30.08,SE,126,5.2,5.2,50,0.00,,---,0.00,VWS V14.01,2013-07-19 15:59:00,
2013-07-19 12:04:00,90.1,69.0,30.08,South,187,5.8,5.8,50,0.00,,---,0.00,VWS V14.01,2013-07-19 16:04:00,
2013-07-19 12:10:00,90.1,68.2,30.08,WSW,241,5.8,5.8,49,0.00,,---,0.00,VWS V14.01,2013-07-19 16:10:00,
2013-07-19 12:15:00,90.1,68.2,30.08,South,179,7.1,7.1,49,0.00,,---,0.00,VWS V14.01,2013-07-19 16:15:00,
2013-07-19 12:20:00,90.1,69.0,30.08,SSW,192,8.4,8.4,50,0.00,,---,0.00,VWS V14.01,2013-07-19 16:20:00,
2013-07-19 12:25:00,90.3,69.2,30.08,SW,232,3.9,7.1,50,0.00,,---,0.00,VWS V14.01,2013-07-19 16:25:00,
2013-07-19 12:30:00,89.8,67.9,30.08,SW,222,0.0,0.0,49,0.00,,---,0.00,VWS V14.01,2013-07-19 16:30:00,
2013-07-19 12:36:00,89.2,67.4,30.08,WSW,239,0.0,0.0,49,0.00,,---,0.00,VWS V14.01,2013-07-19 16:36:00,
2013-07-19 12:41:00,88.3,65.7,30.08,SSW,198,5.2,5.2,47,0.00,,---,0.00,VWS V14.01,2013-07-19 16:41:00,
2013-07-19 12:46:00,87.6,65.9,30.05,South,170,5.8,7.8,49,0.00,,---,0.00,VWS V14.01,2013-07-19 16:46:00,
2013-07-19 12:51:00,86.9,66.1,30.05,SE,127,12.0,12.0,50,0.00,,---,0.00,VWS V14.01,2013-07-19 16:51:00,
2013-07-19 12:56:00,86.4,66.4,30.05,SW,224,7.8,7.8,51,0.00,,---,0.00,VWS V14.01,2013-07-19 16:56:00,
2013-07-19 13:01:00,86.0,66.8,30.05,South,176,3.9,5.2,53,0.00,,---,0.00,VWS V14.01,2013-07-19 17:01:00,
2013-07-19 13:06:00,85.8,67.4,30.05,South,184,5.2,5.2,54,0.00,,---,0.00,VWS V14.01,2013-07-19 17:06:00,
2013-07-19 13:11:00,85.6,67.9,30.05,South,172,4.5,4.5,56,0.00,,---,0.00,VWS V14.01,2013-07-19 17:11:00,
2013-07-19 13:16:00,85.5,68.5,30.05,SSE,148,5.2,5.8,57,0.00,,---,0.00,VWS V14.01,2013-07-19 17:16:00,
2013-07-19 13:21:00,85.5,68.5,30.05,SSE,152,0.0,5.8,57,0.00,,---,0.00,VWS V14.01,2013-07-19 17:21:00,
2013-07-19 13:27:00,85.8,69.5,30.05,SSW,204,5.2,5.2,58,0.00,,---,0.00,VWS V14.01,2013-07-19 17:27:00,
2013-07-19 13:32:00,86.2,69.9,30.05,SSW,208,5.2,5.2,58,0.00,,---,0.00,VWS V14.01,2013-07-19 17:32:00,
2013-07-19 13:37:00,86.7,71.1,30.05,SSE,154,4.5,5.8,60,0.00,,---,0.00,VWS V14.01,2013-07-19 17:37:00,
2013-07-19 13:42:00,87.3,71.6,30.05,SSE,162,5.2,7.8,60,0.00,,---,0.00,VWS V14.01,2013-07-19 17:42:00,
2013-07-19 13:47:00,87.8,72.1,30.05,SE,126,12.0,12.0,60,0.00,,---,0.00,VWS V14.01,2013-07-19 17:47:00,
2013-07-19 13:53:00,88.5,72.8,30.05,SE,131,8.4,12.6,60,0.00,,---,0.00,VWS V14.01,2013-07-19 17:53:00,
2013-07-19 13:58:00,88.9,72.4,30.05,SE,145,9.1,12.6,58,0.00,,---,0.00,VWS V14.01,2013-07-19 17:58:00,
2013-07-19 14:03:00,89.4,72.2,30.05,SSE,165,7.1,9.1,57,0.00,,---,0.00,VWS V14.01,2013-07-19 18:03:00,
2013-07-19 14:08:00,89.6,71.6,30.05,SW,216,5.2,5.2,56,0.00,,---,0.00,VWS V14.01,2013-07-19 18:08:00,
2013-07-19 14:13:00,89.6,70.9,30.02,SSE,153,11.0,11.0,54,0.00,,---,0.00,VWS V14.01,2013-07-19 18:13:00,
2013-07-19 14:18:00,89.4,69.9,30.02,SSW,197,11.7,11.7,53,0.00,,---,0.00,VWS V14.01,2013-07-19 18:18:00,
2013-07-19 14:23:00,88.9,69.4,30.02,SSE,167,7.8,7.8,53,0.00,,---,0.00,VWS V14.01,2013-07-19 18:23:00,
2013-07-19 14:28:00,88.5,69.1,30.02,SSW,200,3.9,5.2,53,0.00,,---,0.00,VWS V14.01,2013-07-19 18:28:00,
2013-07-19 14:33:00,88.5,69.1,30.02,SSE,152,9.1,12.0,53,0.00,,---,0.00,VWS V14.01,2013-07-19 18:33:00,
2013-07-19 14:39:00,88.7,69.3,30.02,SSW,200,11.0,12.0,53,0.00,,---,0.00,VWS V14.01,2013-07-19 18:39:00,
2013-07-19 14:44:00,89.2,69.8,30.02,SE,142,3.9,3.9,53,0.00,,---,0.00,VWS V14.01,2013-07-19 18:44:00,
2013-07-19 14:49:00,89.4,69.2,30.02,South,171,7.8,9.1,51,0.00,,---,0.00,VWS V14.01,2013-07-19 18:49:00,
2013-07-19 14:54:00,89.8,68.7,30.02,SSW,196,10.4,13.3,50,0.00,,---,0.00,VWS V14.01,2013-07-19 18:54:00,
2013-07-19 14:59:00,90.1,69.0,30.02,SE,134,14.6,14.6,50,0.00,,---,0.00,VWS V14.01,2013-07-19 18:59:00,
2013-07-19 15:04:00,90.3,68.4,30.02,SE,144,7.1,9.1,49,0.00,,---,0.00,VWS V14.01,2013-07-19 19:04:00,
2013-07-19 15:09:00,90.3,68.4,30.02,South,173,8.4,15.2,49,0.00,,---,0.00,VWS V14.01,2013-07-19 19:09:00,
2013-07-19 15:14:00,90.5,69.4,30.02,SSE,157,4.5,12.6,50,0.00,,---,0.00,VWS V14.01,2013-07-19 19:14:00,
2013-07-19 15:19:00,90.5,69.4,30.02,SSE,157,7.8,11.7,50,0.00,,---,0.00,VWS V14.01,2013-07-19 19:19:00,
2013-07-19 15:25:00,90.7,69.5,30.02,SSW,210,9.1,9.1,50,0.00,,---,0.00,VWS V14.01,2013-07-19 19:25:00,
2013-07-19 15:30:00,90.7,69.5,30.02,SSW,195,7.1,11.0,50,0.00,,---,0.00,VWS V14.01,2013-07-19 19:30:00,
2013-07-19 15:35:00,90.7,69.5,30.02,SSW,203,7.1,7.1,50,0.00,,---,0.00,VWS V14.01,2013-07-19 19:35:00,
2013-07-19 15:40:00,90.7,69.5,30.02,South,185,8.4,9.7,50,0.00,,---,0.00,VWS V14.01,2013-07-19 19:40:00,
2013-07-19 15:45:00,90.5,68.5,29.99,SSE,148,5.2,12.6,49,0.00,,---,0.00,VWS V14.01,2013-07-19 19:45:00,
2013-07-19 15:51:00,90.5,68.5,29.99,SW,214,3.9,8.4,49,0.00,,---,0.00,VWS V14.01,2013-07-19 19:51:00,
2013-07-19 15:56:00,90.7,69.5,29.99,SW,219,6.5,7.8,50,0.00,,---,0.00,VWS V14.01,2013-07-19 19:56:00,
2013-07-19 16:01:00,90.9,68.9,29.99,SSE,155,5.8,5.8,49,0.00,,---,0.00,VWS V14.01,2013-07-19 20:01:00,
2013-07-19 16:06:00,90.7,67.9,29.99,SSW,199,7.8,7.8,47,0.00,,---,0.00,VWS V14.01,2013-07-19 20:06:00,
2013-07-19 16:11:00,90.0,67.2,29.99,SSW,211,7.8,7.8,47,0.00,,---,0.00,VWS V14.01,2013-07-19 20:11:00,
2013-07-19 16:16:00,89.4,65.8,30.02,ESE,114,7.1,10.4,46,0.00,,---,0.00,VWS V14.01,2013-07-19 20:16:00,
2013-07-19 16:21:00,88.7,66.1,30.02,SW,226,3.2,3.2,47,0.00,,---,0.00,VWS V14.01,2013-07-19 20:21:00,
2013-07-19 16:26:00,88.3,65.7,30.02,SSW,194,8.4,8.4,47,0.00,,---,0.00,VWS V14.01,2013-07-19 20:26:00,
2013-07-19 16:32:00,87.8,65.2,30.02,WNW,295,0.0,0.0,47,0.00,,---,0.00,VWS V14.01,2013-07-19 20:32:00,
2013-07-19 16:37:00,87.4,64.9,30.02,SE,140,0.0,0.0,47,0.00,,---,0.00,VWS V14.01,2013-07-19 20:37:00,
2013-07-19 16:42:00,87.1,64.6,30.02,SSW,208,0.0,0.0,47,0.00,,---,0.00,VWS V14.01,2013-07-19 20:42:00,
2013-07-19 16:47:00,87.1,65.4,30.02,SW,235,0.0,0.0,49,0.00,,---,0.00,VWS V14.01,2013-07-19 20:47:00,
2013-07-19 16:52:00,86.5,64.9,30.02,SW,219,0.0,0.0,49,0.00,,---,0.00,VWS V14.01,2013-07-19 20:52:00,
2013-07-19 16:58:00,86.4,64.8,30.02,North,350,7.8,7.8,49,0.00,,---,0.00,VWS V14.01,2013-07-19 20:58:00,
2013-07-19 17:03:00,85.6,63.3,30.02,North,0,5.8,5.8,47,0.00,,---,0.00,VWS V14.01,2013-07-19 21:03:00,
2013-07-19 17:08:00,84.7,62.5,30.02,North,357,8.4,8.4,47,0.00,,---,0.00,VWS V14.01,2013-07-19 21:08:00,
2013-07-19 17:13:00,84.0,61.8,30.02,NE,46,7.1,8.4,47,0.00,,---,0.00,VWS V14.01,2013-07-19 21:13:00,
2013-07-19 17:18:00,83.1,61.8,30.02,North,11,0.0,0.0,49,0.00,,---,0.00,VWS V14.01,2013-07-19 21:18:00,
2013-07-19 17:23:00,82.8,61.5,30.02,WNW,291,0.0,0.0,49,0.00,,---,0.00,VWS V14.01,2013-07-19 21:23:00,
2013-07-19 17:29:00,82.0,60.8,30.02,NNE,30,0.0,3.9,49,0.00,,---,0.00,VWS V14.01,2013-07-19 21:29:00,
2013-07-19 17:34:00,81.3,60.2,30.02,NNE,23,0.0,0.0,49,0.00,,---,0.00,VWS V14.01,2013-07-19 21:34:00,
2013-07-19 17:39:00,80.8,60.5,30.02,NNE,28,0.0,0.0,50,0.00,,---,0.00,VWS V14.01,2013-07-19 21:39:00,
2013-07-19 17:44:00,80.2,60.7,30.02,NNE,32,0.0,0.0,51,0.00,,---,0.00,VWS V14.01,2013-07-19 21:44:00,
2013-07-19 17:49:00,79.9,60.4,30.02,NNE,31,0.0,0.0,51,0.00,,---,0.00,VWS V14.01,2013-07-19 21:49:00,
2013-07-19 17:54:00,79.7,61.0,30.02,NNE,21,3.9,3.9,53,0.00,,---,0.00,VWS V14.01,2013-07-19 21:54:00,
2013-07-19 17:59:00,79.5,60.8,30.02,NE,51,3.2,3.2,53,0.00,,---,0.00,VWS V14.01,2013-07-19 21:59:00,
2013-07-19 18:05:00,79.3,61.4,30.02,North,1,0.0,0.0,54,0.00,,---,0.00,VWS V14.01,2013-07-19 22:05:00,
2013-07-19 18:10:00,79.2,61.2,30.02,North,1,0.0,0.0,54,0.00,,---,0.00,VWS V14.01,2013-07-19 22:10:00,
2013-07-19 18:15:00,79.0,61.8,30.02,ENE,61,0.0,0.0,56,0.00,,---,0.00,VWS V14.01,2013-07-19 22:15:00,
2013-07-19 18:20:00,79.0,61.8,30.02,ENE,61,0.0,0.0,56,0.00,,---,0.00,VWS V14.01,2013-07-19 22:20:00,
2013-07-19 18:25:00,78.8,61.6,30.02,ENE,61,0.0,0.0,56,0.00,,---,0.00,VWS V14.01,2013-07-19 22:25:00,
2013-07-19 18:30:00,78.8,62.3,30.02,ENE,68,0.0,0.0,57,0.00,,---,0.00,VWS V14.01,2013-07-19 22:30:00,
2013-07-19 18:35:00,78.6,62.8,30.02,SE,133,5.8,5.8,58,0.00,,---,0.00,VWS V14.01,2013-07-19 22:35:00,
2013-07-19 18:40:00,78.6,62.8,30.02,SE,134,7.1,8.4,58,0.00,,---,0.00,VWS V14.01,2013-07-19 22:40:00,
2013-07-19 18:45:00,78.4,63.3,29.99,SE,140,4.5,5.8,60,0.00,,---,0.00,VWS V14.01,2013-07-19 22:45:00,
2013-07-19 18:50:00,78.1,63.0,29.99,SE,142,4.5,7.1,60,0.00,,---,0.00,VWS V14.01,2013-07-19 22:50:00,
2013-07-19 18:56:00,77.9,63.5,29.99,SE,145,0.0,0.0,61,0.00,,---,0.00,VWS V14.01,2013-07-19 22:56:00,
2013-07-19 19:01:00,77.7,63.9,30.02,SE,145,0.0,0.0,63,0.00,,---,0.00,VWS V14.01,2013-07-19 23:01:00,
2013-07-19 19:06:00,77.7,63.9,30.02,SE,145,0.0,0.0,63,0.00,,---,0.00,VWS V14.01,2013-07-19 23:06:00,
2013-07-19 19:11:00,77.5,64.4,30.02,SE,145,0.0,0.0,64,0.00,,---,0.00,VWS V14.01,2013-07-19 23:11:00,
2013-07-19 19:16:00,77.4,64.2,29.99,SE,145,0.0,0.0,64,0.00,,---,0.00,VWS V14.01,2013-07-19 23:16:00,
2013-07-19 19:21:00,77.4,64.8,29.99,SE,135,5.2,5.8,65,0.00,,---,0.00,VWS V14.01,2013-07-19 23:21:00,
2013-07-19 19:26:00,77.2,65.3,29.99,SE,125,7.8,7.8,67,0.00,,---,0.00,VWS V14.01,2013-07-19 23:26:00,
2013-07-19 19:31:00,77.0,65.1,29.99,SE,129,8.4,8.4,67,0.00,,---,0.00,VWS V14.01,2013-07-19 23:31:00,
2013-07-19 19:36:00,76.8,64.9,29.99,SE,141,4.5,7.1,67,0.00,,---,0.00,VWS V14.01,2013-07-19 23:36:00,
2013-07-19 19:42:00,76.6,65.3,29.99,SE,133,3.9,3.9,68,0.00,,---,0.00,VWS V14.01,2013-07-19 23:42:00,
2013-07-19 19:47:00,76.5,65.2,29.99,SSE,151,4.5,4.5,68,0.00,,---,0.00,VWS V14.01,2013-07-19 23:47:00,
2013-07-19 19:52:00,76.3,65.0,29.99,SSE,150,3.2,3.2,68,0.00,,---,0.00,VWS V14.01,2013-07-19 23:52:00,
2013-07-19 19:57:00,76.1,64.8,29.99,SE,133,0.0,3.2,68,0.00,,---,0.00,VWS V14.01,2013-07-19 23:57:00,
2013-07-19 20:02:00,76.1,65.4,29.99,SE,131,0.0,0.0,70,0.00,,---,0.00,VWS V14.01,2013-07-20 00:02:00,
2013-07-19 20:07:00,75.9,65.2,29.99,SE,137,5.2,5.8,70,0.00,,---,0.00,VWS V14.01,2013-07-20 00:07:00,
2013-07-19 20:13:00,75.7,65.1,30.02,SE,137,5.2,5.2,70,0.00,,---,0.00,VWS V14.01,2013-07-20 00:13:00,
2013-07-19 20:18:00,75.6,64.9,30.02,SE,138,0.0,0.0,70,0.00,,---,0.00,VWS V14.01,2013-07-20 00:18:00,
2013-07-19 20:23:00,75.4,65.3,30.02,SE,138,0.0,0.0,71,0.00,,---,0.00,VWS V14.01,2013-07-20 00:23:00,
2013-07-19 20:28:00,75.4,65.3,30.02,SE,138,0.0,0.0,71,0.00,,---,0.00,VWS V14.01,2013-07-20 00:28:00,
2013-07-19 20:33:00,75.2,65.1,30.02,SE,138,0.0,0.0,71,0.00,,---,0.00,VWS V14.01,2013-07-20 00:33:00,
2013-07-19 20:38:00,75.2,65.7,30.02,SE,140,0.0,0.0,72,0.00,,---,0.00,VWS V14.01,2013-07-20 00:38:00,
2013-07-19 20:44:00,75.0,65.5,30.02,SSE,157,5.2,5.2,72,0.00,,---,0.00,VWS V14.01,2013-07-20 00:44:00,
2013-07-19 20:49:00,75.0,65.5,30.02,South,169,4.5,4.5,72,0.00,,---,0.00,VWS V14.01,2013-07-20 00:49:00,
2013-07-19 20:54:00,74.7,65.2,30.02,SSE,163,7.1,7.1,72,0.00,,---,0.00,VWS V14.01,2013-07-20 00:54:00,
2013-07-19 20:59:00,74.3,64.8,30.02,SE,146,4.5,5.8,72,0.00,,---,0.00,VWS V14.01,2013-07-20 00:59:00,
2013-07-19 21:04:00,74.1,65.2,30.02,SE,140,5.2,7.1,74,0.00,,---,0.00,VWS V14.01,2013-07-20 01:04:00,
2013-07-19 21:10:00,73.8,64.8,30.02,SSE,149,4.5,4.5,74,0.00,,---,0.00,VWS V14.01,2013-07-20 01:10:00,
2013-07-19 21:15:00,73.8,64.8,30.02,SE,140,7.1,7.1,74,0.00,,---,0.00,VWS V14.01,2013-07-20 01:15:00,
2013-07-19 21:20:00,73.8,65.4,30.02,SSE,150,5.2,5.8,75,0.00,,---,0.00,VWS V14.01,2013-07-20 01:20:00,
2013-07-19 21:25:00,73.6,65.2,30.02,SE,138,3.2,4.5,75,0.00,,---,0.00,VWS V14.01,2013-07-20 01:25:00,
2013-07-19 21:30:00,73.6,65.2,30.02,SSE,163,4.5,5.8,75,0.00,,---,0.00,VWS V14.01,2013-07-20 01:30:00,
2013-07-19 21:35:00,73.4,65.6,30.02,SE,145,3.9,3.9,76,0.00,,---,0.00,VWS V14.01,2013-07-20 01:35:00,
2013-07-19 21:40:00,73.4,65.6,30.02,SE,142,3.9,4.5,76,0.00,,---,0.00,VWS V14.01,2013-07-20 01:40:00,
2013-07-19 21:46:00,73.2,65.4,30.02,SE,134,5.8,5.8,76,0.00,,---,0.00,VWS V14.01,2013-07-20 01:46:00,
2013-07-19 21:51:00,73.2,65.9,30.02,SE,131,3.9,3.9,78,0.00,,---,0.00,VWS V14.01,2013-07-20 01:51:00,
2013-07-19 21:56:00,73.2,65.9,30.02,SE,138,3.9,4.5,78,0.00,,---,0.00,VWS V14.01,2013-07-20 01:56:00,
2013-07-19 22:01:00,73.0,65.7,30.02,SE,144,3.9,3.9,78,0.00,,---,0.00,VWS V14.01,2013-07-20 02:01:00,
2013-07-19 22:06:00,73.0,65.7,30.02,SE,144,3.2,3.9,78,0.00,,---,0.00,VWS V14.01,2013-07-20 02:06:00,
2013-07-19 22:11:00,73.0,66.2,30.02,SE,144,0.0,0.0,79,0.00,,---,0.00,VWS V14.01,2013-07-20 02:11:00,
2013-07-19 22:16:00,73.0,66.2,30.05,SE,142,0.0,0.0,79,0.00,,---,0.00,VWS V14.01,2013-07-20 02:16:00,
2013-07-19 22:21:00,73.0,66.2,30.05,SSE,156,0.0,3.2,79,0.00,,---,0.00,VWS V14.01,2013-07-20 02:21:00,
2013-07-19 22:26:00,73.0,66.2,30.02,SSE,154,3.2,3.2,79,0.00,,---,0.00,VWS V14.01,2013-07-20 02:26:00,
2013-07-19 22:31:00,73.0,66.7,30.02,SSE,151,0.0,3.9,81,0.00,,---,0.00,VWS V14.01,2013-07-20 02:31:00,
2013-07-19 22:36:00,73.0,66.7,30.02,SE,138,5.8,5.8,81,0.00,,---,0.00,VWS V14.01,2013-07-20 02:36:00,
2013-07-19 22:37:00,73.0,66.7,30.02,SE,145,5.2,5.8,81,0.00,,---,0.00,VWS V14.01,2013-07-20 02:37:00,
2013-07-19 22:42:00,72.9,66.6,30.02,SW,229,0.0,0.0,81,0.00,,---,0.00,VWS V14.01,2013-07-20 02:42:00,
2013-07-19 22:47:00,72.9,66.6,30.02,SE,138,3.9,3.9,81,0.00,,---,0.00,VWS V14.01,2013-07-20 02:47:00,
2013-07-19 22:52:00,72.9,67.1,30.02,SE,139,3.9,3.9,82,0.00,,---,0.00,VWS V14.01,2013-07-20 02:52:00,
2013-07-19 22:57:00,72.7,66.9,30.02,SE,137,5.2,5.8,82,0.00,,---,0.00,VWS V14.01,2013-07-20 02:57:00,
2013-07-19 23:03:00,72.7,66.9,30.02,South,184,0.0,0.0,82,0.00,,---,0.00,VWS V14.01,2013-07-20 03:03:00,
2013-07-19 23:08:00,72.7,66.9,30.02,SSE,153,5.2,5.2,82,0.00,,---,0.00,VWS V14.01,2013-07-20 03:08:00,
2013-07-19 23:13:00,72.5,66.7,30.02,SE,142,7.1,7.1,82,0.00,,---,0.00,VWS V14.01,2013-07-20 03:13:00,
2013-07-19 23:18:00,72.5,67.2,30.02,SE,142,3.9,5.8,83,0.00,,---,0.00,VWS V14.01,2013-07-20 03:18:00,
2013-07-19 23:23:00,72.3,67.0,30.02,SE,136,4.5,4.5,83,0.00,,---,0.00,VWS V14.01,2013-07-20 03:23:00,
2013-07-19 23:28:00,72.3,67.0,29.99,SE,141,3.9,3.9,83,0.00,,---,0.00,VWS V14.01,2013-07-20 03:28:00,
2013-07-19 23:33:00,72.1,66.8,29.99,SE,142,3.2,3.9,83,0.00,,---,0.00,VWS V14.01,2013-07-20 03:33:00,
2013-07-19 23:39:00,72.1,66.8,29.99,SE,143,0.0,0.0,83,0.00,,---,0.00,VWS V14.01,2013-07-20 03:39:00,
2013-07-19 23:44:00,72.1,67.3,29.99,SE,143,0.0,0.0,85,0.00,,---,0.00,VWS V14.01,2013-07-20 03:44:00,
2013-07-19 23:49:00,72.0,67.1,29.99,SE,143,0.0,0.0,85,0.00,,---,0.00,VWS V14.01,2013-07-20 03:49:00,
2013-07-19 23:54:00,72.0,67.1,29.99,SE,143,0.0,0.0,85,0.00,,---,0.00,VWS V14.01,2013-07-20 03:54:00,
2013-07-19 23:59:00,71.8,67.0,29.99,SE,143,0.0,0.0,85,0.00,,---,0.00,VWS V14.01,2013-07-20 03:59:00,